Beckley, WV

10:03 AM EDT on October 17, 2019 (GMT -0400)
Raleigh County Memorial

Weather History for KBKW - September, 2019

Change the Weather History Date:

Saturday, September 21, 2019

  Actual Average Record
Temperature  
Mean Temperature 72 °F 61 °F  
Max Temperature 82 °F 71 °F 89 °F (1931)
Min Temperature 62 °F 52 °F 25 °F (1956)
Degree Days  
Heating Degree Days 0 5  
Month to date heating degree days 0 55  
Since 1 July heating degree days 9 76  
Cooling Degree Days 8 1  
Month to date cooling degree days 151 50  
Year to date cooling degree days 845 543  
Growing Degree Days 22 (Base 50)    
Moisture  
Dew Point 59 °F    
Average Humidity 68    
Maximum Humidity 86    
Minimum Humidity 45    
Precipitation  
Precipitation 0.01 in 0.09 in 1.94 in (1966)
Month to date precipitation 0.04 2.15  
Year to date precipitation 31.76 31.81  
Snow  
Snow 0.00 in 0.00 in 0.00 in (2016)
Month to date snowfall 0.0 0.0  
Since 1 September snowfall 0.0 0.0  
Snow Depth 0.00 in    
Sea Level Pressure  
Sea Level Pressure 30.23 in    
Wind  
Wind Speed 4 mph ()    
Max Wind Speed 13 mph    
Max Gust Speed 17 mph    
Visibility 9.9 miles    
Events Rain    
T = Trace of Precipitation, MM = Missing Value Source: Averaged Metar Reports

Daily Weather History Graph

Daily Weather History Graph

Search for Another Location

Airport or City:

Astronomy

Sep. 21, 2019 Rise Set
Actual Time 7:11 AM EDT 7:23 PM EDT
Civil Twilight 6:45 AM EDT 7:49 PM EDT
Nautical Twilight 6:14 AM EDT 8:20 PM EDT
Astronomical Twilight 5:43 AM EDT 8:51 PM EDT
Moon No Moon Rise 2:09 PM EDT (9/21)
Length of Visible Light 13h 04m
Length of Day
12h 12m
Waning Gibbous, 55% of the Moon is Illuminated
Sep 21
Waning Gibbous
Sep 21
Last Quarter
Sep 28
New
Oct 5
First Quarter
Oct 13
Full

Hourly Weather History & Observations

Time (EDT) Temp. Heat Index Dew Point Humidity Pressure Visibility Wind Dir Wind Speed Gust Speed Precip Events Conditions
12:51 AM 66.0 °F - 57.0 °F 73% 30.24 in 10.0 mi South 4.6 mph - N/A   Clear
1:51 AM 66.0 °F - 57.9 °F 75% 30.23 in 10.0 mi South 5.8 mph - N/A   Mostly Cloudy
2:51 AM 66.0 °F - 57.9 °F 75% 30.22 in 10.0 mi SSW 4.6 mph - N/A   Partly Cloudy
3:51 AM 64.9 °F - 57.9 °F 78% 30.21 in 10.0 mi South 4.6 mph - N/A   Clear
4:51 AM 64.9 °F - 57.9 °F 78% 30.22 in 10.0 mi SSW 4.6 mph - N/A   Overcast
6:51 AM 62.1 °F - 57.9 °F 86% 30.26 in 10.0 mi South 3.5 mph - N/A   Clear
7:51 AM 64.0 °F - 59.0 °F 84% 30.28 in 10.0 mi South 4.6 mph - N/A   Scattered Clouds
8:51 AM 68.0 °F - 60.1 °F 76% 30.30 in 10.0 mi SW 4.6 mph - N/A   Mostly Cloudy
9:51 AM 66.9 °F - 60.1 °F 79% 30.30 in 7.0 mi SW 5.8 mph - 0.01 in Rain Light Rain
10:51 AM 70.0 °F - 62.1 °F 76% 30.30 in 10.0 mi SW 3.5 mph - 0.00 in   Mostly Cloudy
11:51 AM 75.9 °F - 62.1 °F 62% 30.27 in 10.0 mi Calm Calm - N/A   Overcast
12:51 PM 77.0 °F - 57.9 °F 52% 30.25 in 10.0 mi WNW 6.9 mph - N/A   Scattered Clouds
1:51 PM 79.0 °F - 57.9 °F 48% 30.23 in 10.0 mi NW 10.4 mph - N/A   Mostly Cloudy
2:51 PM 80.1 °F 80.6 °F 57.9 °F 47% 30.22 in 10.0 mi North 6.9 mph - N/A   Overcast
3:51 PM 82.0 °F 82.1 °F 59.0 °F 45% 30.19 in 10.0 mi North 3.5 mph - N/A   Mostly Cloudy
4:51 PM 81.0 °F 81.3 °F 59.0 °F 47% 30.18 in 10.0 mi North 10.4 mph - N/A   Mostly Cloudy
5:51 PM 79.0 °F - 59.0 °F 50% 30.18 in 10.0 mi NNE 6.9 mph - N/A   Overcast
6:51 PM 77.0 °F - 59.0 °F 54% 30.19 in 10.0 mi NNE 4.6 mph - N/A   Clear
7:51 PM 72.0 °F - 59.0 °F 64% 30.19 in 10.0 mi ENE 3.5 mph - N/A   Clear
8:51 PM 66.9 °F - 59.0 °F 76% 30.21 in 10.0 mi Calm Calm - N/A   Clear
9:51 PM 66.0 °F - 59.0 °F 78% 30.22 in 10.0 mi ESE 3.5 mph - N/A   Clear
10:51 PM 64.9 °F - 59.0 °F 81% 30.23 in 10.0 mi Calm Calm - N/A   Clear
11:51 PM 64.9 °F - 59.0 °F 81% 30.21 in 10.0 mi SSE 4.6 mph - N/A   Clear